Location: Barrio de Buenos Aires
(28.4500°N, 16.2667°W)
Time: 14:53:07
(UTC+00:00)

USA 234 - Pass Details

Date: 24 January 2020
Orbit: 1100 x 1107 km, 123.0° (Epoch: 20 February)

Event Time Altitude Azimuth Distance (km) Brightness Sun altitude
Rises 20:43:36 0° 158° (SSE) 3,899 6.0 -27.5°
Reaches altitude 10° 20:46:14 10° 165° (SSE) 2,944 5.4 -28.1°
Maximum altitude 20:52:17 41° 234° (SW) 1,533 4.3 -29.4°
Drops below altitude 10° 20:58:22 10° 303° (WNW) 2,955 6.1 -30.8°
Sets 21:01:01 0° 311° (NW) 3,916 6.7 -31.3°
